GW1682 Weather Reports


Display with metric or nautical units.
time (UTC)temp
F
wind
direction
speed
MPH
gust
MPH
rain 1hr
in
rain 24hr
in
rain mn
in
humidity
%
barometer
mb
20260506040254 60 90 0.0 0.0 0.00 0.00 0.00 63 1014.8
20260506034801 60 141 0.0 0.0 0.00 0.00 0.00 63 1014.6
20260506033300 60 131 0.0 0.0 0.00 0.00 0.00 62 1014.5
20260506031755 60 127 0.0 0.0 0.00 0.00 0.00 63 1014.4
20260506030259 60 161 0.0 1.0 0.00 0.00 0.00 63 1014.3
20260506024805 60 166 1.0 2.0 0.00 0.00 0.00 63 1014.3
20260506023258 60 161 0.0 2.0 0.00 0.00 0.00 64 1014.4
20260506021800 60 158 1.0 2.0 0.00 0.00 0.00 64 1014.5
20260506020259 60 142 2.0 2.0 0.00 0.00 0.00 66 1014.5
20260506014801 60 140 2.0 3.0 0.00 0.00 0.00 66 1014.6
20260506013258 61 144 1.0 2.0 0.00 0.00 0.00 66 1014.7
20260506010258 62 151 0.0 2.0 0.00 0.00 0.00 65 1014.6
20260506004759 62 154 2.0 3.0 0.00 0.00 0.00 64 1014.7
20260506001757 62 142 1.0 2.0 0.00 0.00 0.00 64 1014.8
20260506000256 62 145 1.0 3.0 0.00 0.00 0.00 64 1014.8
20260505234756 62 154 1.0 2.0 0.00 0.00 0.00 64 1014.9
20260505233303 62 172 0.0 4.0 0.00 0.00 0.00 64 1014.9
20260505231756 62 155 2.0 3.0 0.00 0.00 0.00 61 1015.1
20260505230253 62 169 1.0 3.0 0.00 0.00 0.00 60 1015.1
20260505224755 62 154 1.0 2.0 0.00 0.00 0.00 59 1015.2
20260505223254 62 220 0.0 3.0 0.00 0.00 0.00 58 1015.3
20260505221757 62 134 2.0 3.0 0.00 0.00 0.00 57 1015.3
20260505220253 62 152 1.0 4.0 0.00 0.00 0.00 58 1015.3
20260505214752 62 166 0.0 3.0 0.00 0.00 0.00 58 1015.2
20260505213254 62 158 0.0 0.0 0.00 0.00 0.00 58 1015.2
20260505210252 63 151 0.0 0.0 0.00 0.00 0.00 56 1015.3
20260505204753 63 172 0.0 2.0 0.00 0.00 0.00 55 1015.2
20260505201745 64 151 0.0 2.0 0.00 0.00 0.00 55 1015.5
20260505200243 64 152 0.0 0.0 0.00 0.00 0.00 57 1015.4
20260505193240 65 144 0.0 2.0 0.00 0.00 0.00 54 1015.4
20260505191742 65 168 0.0 0.0 0.00 0.00 0.00 55 1015.3
20260505183240 67 11 0.0 0.0 0.00 0.00 0.00 51 1015.0
20260505181736 68 3 0.0 0.0 0.00 0.00 0.00 50 1014.8
20260505180234 69 316 0.0 0.0 0.00 0.00 0.00 48 1014.6
20260505173234 71 259 0.0 0.0 0.00 0.00 0.00 44 1014.5
20260505171731 71 264 0.0 2.0 0.00 0.00 0.00 43 1014.4
20260505170237 72 257 0.0 3.0 0.00 0.00 0.00 42 1014.5
20260505164731 73 258 0.0 2.0 0.00 0.00 0.00 40 1014.4
20260505163230 73 251 1.0 5.0 0.00 0.00 0.00 38 1014.5
20260505153231 74 238 1.0 6.0 0.00 0.00 0.00 35 1014.3
20260505151730 75 223 1.0 6.0 0.00 0.00 0.00 34 1014.4
20260505140231 76 125 3.0 5.0 0.00 0.00 0.00 34 1014.5
20260505124730 76 223 2.0 7.0 0.00 0.00 0.00 32 1015.1
20260505123234 77 272 2.0 6.0 0.00 0.00 0.00 33 1015.3
20260505121730 76 265 2.0 7.0 0.00 0.00 0.00 33 1015.4
20260505120230 75 202 2.0 6.0 0.00 0.00 0.00 33 1015.5
20260505114730 74 164 5.0 11.0 0.00 0.00 0.00 36 1015.6
20260505113231 74 230 2.0 7.0 0.00 0.00 0.00 37 1015.7
20260505111731 74 252 1.0 6.0 0.00 0.00 0.00 40 1015.7
20260505110231 74 224 3.0 9.0 0.00 0.00 0.00 42 1015.8
20260505101731 73 262 1.0 7.0 0.00 0.00 0.00 39 1016.0
20260505100230 73 275 2.0 7.0 0.00 0.00 0.00 41 1016.0
20260505094731 72 216 2.0 7.0 0.00 0.00 0.00 49 1016.1
20260505093230 72 237 1.0 4.0 0.00 0.00 0.00 50 1016.1
20260505091759 72 244 2.0 7.0 0.00 0.00 0.00 50 1016.2
20260505090234 71 166 2.0 4.0 0.00 0.00 0.00 48 1016.1
20260505084749 71 188 2.0 5.0 0.00 0.00 0.00 50 1016.3
20260505081748 69 245 1.0 4.0 0.00 0.00 0.00 43 1016.4
20260505080235 69 244 1.0 4.0 0.00 0.00 0.00 41 1016.5
20260505074735 68 149 0.0 4.0 0.00 0.00 0.00 42 1016.5
20260505070238 66 265 0.0 2.0 0.00 0.00 0.00 44 1016.4
20260505064733 65 207 1.0 3.0 0.00 0.00 0.00 46 1016.4
20260505063232 64 255 0.0 0.0 0.00 0.00 0.00 46 1016.3
20260505061739 64 224 0.0 0.0 0.00 0.00 0.00 44 1016.3
20260505060239 62 224 0.0 0.0 0.00 0.00 0.00 53 1016.2
20260505054733 61 235 0.0 0.0 0.00 0.00 0.00 55 1016.3
20260505053232 60 195 0.0 2.0 0.00 0.00 0.00 60 1016.3
20260505051732 59 176 1.0 2.0 0.00 0.00 0.00 56 1016.2
20260505050238 58 159 1.0 2.0 0.00 0.00 0.00 53 1016.1
20260505041730 55 155 2.0 3.0 0.00 0.00 0.00 55 1015.9